Location: Waco, TX
(31.5480°N, 97.1670°W)
Time: 22:58:16
(UTC-05:00)

ISS - Pass Details

Date: 20 April 2018
Orbit: 403 x 406 km, 51.6° (Epoch: 23 April)

Event Time Altitude Azimuth Distance (km) Brightness Sun altitude
Rises 17:15:30 0° 323° (NW) 2,324 0.4 34.1°
Reaches altitude 10° 17:17:41 10° 332° (NNW) 1,462 -0.7 33.7°
Maximum altitude 17:20:44 35° 41° (NE) 672 -2.8 33.0°
Drops below altitude 10° 17:23:46 10° 109° (ESE) 1,457 -1.4 32.4°
Sets 17:25:57 0° 119° (ESE) 2,314 -0.4 31.9°
